This is the latest recevied weather packets stored in our database for station/object WA4OPQ-1. If no packets are shown the sender has not sent any weather packets the latest 10 day(s).
| Time | Temp. | Humidity | Pressure | Rain* | Wind** | Luminosity | Snow |
|---|---|---|---|---|---|---|---|
| 1787629989 | 20° C | 75% | 1015.1 hPa | 0 mm | 0 m/s | 0 W/m² | - |
| 1787629474 | 20° C | 73% | 1015.3 hPa | 0 mm | 0 m/s | 0 W/m² | - |
| 1787628994 | 20° C | 78% | 1015.4 hPa | 0 mm | 0 m/s | 0 W/m² | - |
| 1787628514 | 20° C | 77% | 1015.6 hPa | 0 mm | 0 m/s | 0 W/m² | - |
| 1787627934 | 20.56° C | 81% | 1015.4 hPa | 0 mm | 0 m/s | 0 W/m² | - |
| 1787627374 | 20.56° C | 81% | 1015.4 hPa | 0 mm | 0 m/s | 0 W/m² | - |
| 1787626861 | 20° C | 75% | 1015.3 hPa | 0 mm | 0 m/s | 0 W/m² | - |
| 1787626374 | 20° C | 78% | 1015.3 hPa | 0 mm | 0 m/s | 0 W/m² | - |
| 1787625824 | 20° C | 74% | 1015.2 hPa | 0 mm | 0 m/s | 0 W/m² | - |
| 1787625350 | 20.56° C | 77% | 1014.9 hPa | 0 mm | 0 m/s | 0 W/m² | - |
| 1787624741 | 20.56° C | 79% | 1014.8 hPa | 0 mm | 0 m/s | 0 W/m² | - |
| 1787624174 | 20.56° C | 79% | 1014.8 hPa | 0 mm | 0 m/s | 0 W/m² | - |
| 1787623601 | 20.56° C | 81% | 1014.7 hPa | 0 mm | 0 m/s | 0 W/m² | - |
| 1787623079 | 20.56° C | 82% | 1014.7 hPa | 0 mm | 0 m/s | 0 W/m² | - |
| 1787622561 | 21.11° C | 76% | 1014.6 hPa | 0 mm | 0 m/s | 0 W/m² | - |
| 1787622001 | 21.11° C | 77% | 1014.6 hPa | 0 mm | 0 m/s | 0 W/m² | - |
| 1787621449 | 21.11° C | 79% | 1014.2 hPa | 0 mm | 0 m/s | 0 W/m² | - |
| 1787620854 | 21.67° C | 77% | 1014 hPa | 0 mm | 0 m/s | 0 W/m² | - |
| 1787620289 | 21.67° C | 73% | 1014.2 hPa | 0 mm | 0 m/s | 0 W/m² | - |
| 1787619739 | 22.22° C | 71% | 1014.1 hPa | 0 mm | 0 m/s | 0 W/m² | - |
| 1787619159 | 21.67° C | 71% | 1013.9 hPa | 0 mm | 0 m/s | 0 W/m² | - |
| 1787618599 | 22.22° C | 69% | 1014 hPa | 0 mm | 0 m/s | 0 W/m² | - |
| 1787618119 | 22.22° C | 69% | 1013.7 hPa | 0 mm | 0 m/s | 0 W/m² | - |
| 1787617607 | 22.22° C | 71% | 1013.9 hPa | 0 mm | 0 m/s | 0 W/m² | - |
| 1787617059 | 22.22° C | 73% | 1013.7 hPa | 0 mm | 0 m/s | 2 W/m² | - |
* Rain latest hour (hover to see other rain measurements)
** Current wind speed in m/s (hover to see current wind gust speed)